Year,Month,Day,Hour,Minute,Value (Times are PST for temperature in C)
2015,11,28,00,00,-2.90
2015,11,28,00,01,-2.90
2015,11,28,00,02,-2.90
2015,11,28,00,03,-2.90
2015,11,28,00,04,-2.90
2015,11,28,00,05,-2.90
2015,11,28,00,07,-2.90
2015,11,28,00,08,-2.90
2015,11,28,00,10,-2.90
2015,11,28,00,12,-2.90
2015,11,28,00,13,-2.90
2015,11,28,00,14,-2.90
2015,11,28,00,15,-2.90
2015,11,28,00,16,-2.90
2015,11,28,00,17,-2.90
2015,11,28,00,19,-2.90
2015,11,28,00,20,-2.90
2015,11,28,00,21,-2.90
2015,11,28,00,22,-2.90
2015,11,28,00,24,-2.80
2015,11,28,00,25,-2.80
2015,11,28,00,26,-2.80
2015,11,28,00,27,-2.80
2015,11,28,00,28,-2.80
2015,11,28,00,29,-2.80
2015,11,28,00,30,-2.70
2015,11,28,00,32,-2.70
2015,11,28,00,33,-2.70
2015,11,28,00,34,-2.70
2015,11,28,00,35,-2.70
2015,11,28,00,36,-2.70
2015,11,28,00,37,-2.70
2015,11,28,00,38,-2.70
2015,11,28,00,39,-2.70
2015,11,28,00,40,-2.80
2015,11,28,00,41,-2.80
2015,11,28,00,42,-2.80
2015,11,28,00,43,-2.80
2015,11,28,00,44,-2.80
2015,11,28,00,45,-2.80
2015,11,28,00,46,-2.80
2015,11,28,00,47,-2.80
2015,11,28,00,48,-2.80
2015,11,28,00,49,-2.80
2015,11,28,00,50,-2.80
2015,11,28,00,51,-2.80
2015,11,28,00,52,-2.80
2015,11,28,00,53,-2.80
2015,11,28,00,54,-2.80
2015,11,28,00,55,-2.90
2015,11,28,00,56,-2.90
2015,11,28,00,57,-2.90
2015,11,28,00,58,-2.90
2015,11,28,00,59,-2.90
2015,11,28,01,00,-2.90
2015,11,28,01,01,-2.90
2015,11,28,01,02,-2.90
2015,11,28,01,03,-2.90
2015,11,28,01,04,-3.00
2015,11,28,01,05,-3.00
2015,11,28,01,06,-3.10
2015,11,28,01,07,-3.10
2015,11,28,01,08,-3.10
2015,11,28,01,09,-3.10
2015,11,28,01,10,-3.10
2015,11,28,01,11,-3.10
2015,11,28,01,12,-3.10
2015,11,28,01,13,-3.10
2015,11,28,01,14,-3.10
2015,11,28,01,15,-3.10
2015,11,28,01,16,-3.10
2015,11,28,01,18,-3.10
2015,11,28,01,19,-3.10
2015,11,28,01,20,-3.20
2015,11,28,01,21,-3.20
2015,11,28,01,22,-3.20
2015,11,28,01,23,-3.20
2015,11,28,01,24,-3.20
2015,11,28,01,25,-3.20
2015,11,28,01,26,-3.20
2015,11,28,01,29,-3.20
2015,11,28,01,30,-3.20
2015,11,28,01,31,-3.20
2015,11,28,01,32,-3.20
2015,11,28,01,33,-3.20
2015,11,28,01,34,-3.20
2015,11,28,01,35,-3.20
2015,11,28,01,36,-3.20
2015,11,28,01,37,-3.20
2015,11,28,01,38,-3.20
2015,11,28,01,39,-3.20
2015,11,28,01,40,-3.20
2015,11,28,01,41,-3.20
2015,11,28,01,42,-3.20
2015,11,28,01,43,-3.20
2015,11,28,01,44,-3.10
2015,11,28,01,45,-3.10
2015,11,28,01,46,-3.10
2015,11,28,01,47,-3.10
2015,11,28,01,48,-3.10
2015,11,28,01,49,-3.10
2015,11,28,01,50,-3.10
2015,11,28,01,51,-3.00
2015,11,28,01,52,-3.00
2015,11,28,01,53,-3.00
2015,11,28,01,54,-2.90
2015,11,28,01,55,-2.90
2015,11,28,01,56,-2.90
2015,11,28,01,57,-2.90
2015,11,28,01,58,-2.90
2015,11,28,01,59,-2.90
2015,11,28,02,00,-2.90
2015,11,28,02,01,-2.90
2015,11,28,02,02,-2.90
2015,11,28,02,03,-2.90
2015,11,28,02,04,-2.90
2015,11,28,02,05,-2.90
2015,11,28,02,07,-2.90
2015,11,28,02,08,-2.90
2015,11,28,02,09,-2.90
2015,11,28,02,10,-2.80
2015,11,28,02,11,-2.80
2015,11,28,02,12,-2.80
2015,11,28,02,13,-2.80
2015,11,28,02,14,-2.80
2015,11,28,02,15,-2.80
2015,11,28,02,16,-2.80
2015,11,28,02,17,-2.80
2015,11,28,02,18,-2.80
2015,11,28,02,19,-2.80
2015,11,28,02,20,-2.80
2015,11,28,02,21,-2.80
2015,11,28,02,22,-2.80
2015,11,28,02,23,-2.80
2015,11,28,02,24,-2.80
2015,11,28,02,25,-2.80
2015,11,28,02,26,-2.80
2015,11,28,02,27,-2.80
2015,11,28,02,28,-2.80
2015,11,28,02,29,-2.80
2015,11,28,02,30,-2.80
2015,11,28,02,31,-2.80
2015,11,28,02,32,-2.80
2015,11,28,02,33,-2.80
2015,11,28,02,34,-2.80
2015,11,28,02,35,-2.80
2015,11,28,02,36,-2.80
2015,11,28,02,37,-2.80
2015,11,28,02,38,-2.80
2015,11,28,02,39,-2.80
2015,11,28,02,40,-2.80
2015,11,28,02,41,-2.80
2015,11,28,02,42,-2.80
2015,11,28,02,43,-2.80
2015,11,28,02,44,-2.80
2015,11,28,02,45,-2.80
2015,11,28,02,47,-2.80
2015,11,28,02,48,-2.90
2015,11,28,02,49,-2.90
2015,11,28,02,50,-2.90
2015,11,28,02,51,-2.90
2015,11,28,02,52,-2.90
2015,11,28,02,53,-2.90
2015,11,28,02,54,-2.90
2015,11,28,02,55,-2.90
2015,11,28,02,56,-2.90
2015,11,28,02,57,-2.90
2015,11,28,02,58,-2.90
2015,11,28,02,59,-2.90
2015,11,28,03,01,-2.90
2015,11,28,03,02,-2.90
2015,11,28,03,03,-2.90
2015,11,28,03,04,-2.90
2015,11,28,03,05,-2.90
2015,11,28,03,07,-2.90
2015,11,28,03,08,-2.90
2015,11,28,03,09,-2.90
2015,11,28,03,10,-2.90
2015,11,28,03,11,-2.90
2015,11,28,03,12,-2.90
2015,11,28,03,13,-2.90
2015,11,28,03,14,-2.90
2015,11,28,03,15,-2.90
2015,11,28,03,16,-2.90
2015,11,28,03,17,-2.90
2015,11,28,03,18,-2.90
2015,11,28,03,19,-2.90
2015,11,28,03,20,-2.90
2015,11,28,03,21,-2.90
2015,11,28,03,22,-2.90
2015,11,28,03,23,-2.90
2015,11,28,03,26,-2.90
2015,11,28,03,27,-2.90
2015,11,28,03,28,-3.00
2015,11,28,03,29,-3.00
2015,11,28,03,30,-3.00
2015,11,28,03,31,-3.00
2015,11,28,03,32,-3.00
2015,11,28,03,33,-3.00
2015,11,28,03,34,-3.10
2015,11,28,03,35,-3.10
2015,11,28,03,36,-3.10
2015,11,28,03,37,-3.10
2015,11,28,03,38,-3.10
2015,11,28,03,39,-3.10
2015,11,28,03,40,-3.10
2015,11,28,03,41,-3.10
2015,11,28,03,42,-3.10
2015,11,28,03,44,-3.10
2015,11,28,03,45,-3.10
2015,11,28,03,46,-3.10
2015,11,28,03,47,-3.10
2015,11,28,03,48,-3.10
2015,11,28,03,49,-3.10
2015,11,28,03,50,-3.10
2015,11,28,03,51,-3.10
2015,11,28,03,52,-3.10
2015,11,28,03,53,-3.10
2015,11,28,03,54,-3.10
2015,11,28,03,55,-3.10
2015,11,28,03,56,-3.10
2015,11,28,03,57,-3.10
2015,11,28,03,58,-3.10
2015,11,28,03,59,-3.10
2015,11,28,04,00,-3.10
2015,11,28,04,01,-3.10
2015,11,28,04,02,-3.10
2015,11,28,04,05,-3.10
2015,11,28,04,06,-3.10
2015,11,28,04,07,-3.10
2015,11,28,04,08,-3.10
2015,11,28,04,09,-3.10
2015,11,28,04,10,-3.10
2015,11,28,04,11,-3.10
2015,11,28,04,12,-3.10
2015,11,28,04,13,-3.10
2015,11,28,04,14,-3.10
2015,11,28,04,15,-3.10
2015,11,28,04,16,-3.10
2015,11,28,04,17,-3.10
2015,11,28,04,18,-3.10
2015,11,28,04,19,-3.00
2015,11,28,04,20,-3.00
2015,11,28,04,21,-3.00
2015,11,28,04,22,-2.90
2015,11,28,04,23,-2.90
2015,11,28,04,24,-2.90
2015,11,28,04,27,-2.90
2015,11,28,04,28,-2.90
2015,11,28,04,29,-2.90
2015,11,28,04,30,-2.90
2015,11,28,04,31,-2.90
2015,11,28,04,32,-2.90
2015,11,28,04,33,-2.90
2015,11,28,04,34,-2.90
2015,11,28,04,35,-2.80
2015,11,28,04,36,-2.80
2015,11,28,04,37,-2.80
2015,11,28,04,38,-2.80
2015,11,28,04,39,-2.80
2015,11,28,04,40,-2.80
2015,11,28,04,41,-2.80
2015,11,28,04,42,-2.80
2015,11,28,04,43,-2.90
2015,11,28,04,44,-2.90
2015,11,28,04,45,-2.90
2015,11,28,04,46,-2.90
2015,11,28,04,47,-2.90
2015,11,28,04,48,-2.90
2015,11,28,04,49,-2.90
2015,11,28,04,50,-2.90
2015,11,28,04,51,-2.90
2015,11,28,04,52,-2.90
2015,11,28,04,53,-2.90
2015,11,28,04,54,-2.90
2015,11,28,04,55,-2.90
2015,11,28,04,56,-2.90
2015,11,28,04,57,-2.90
2015,11,28,04,58,-2.90
2015,11,28,04,59,-2.90
2015,11,28,05,02,-2.90
2015,11,28,05,03,-2.90
2015,11,28,05,04,-2.90
2015,11,28,05,05,-2.90
2015,11,28,05,06,-2.80
2015,11,28,05,07,-2.90
2015,11,28,05,08,-2.90
2015,11,28,05,09,-2.90
2015,11,28,05,10,-2.90
2015,11,28,05,11,-2.90
2015,11,28,05,12,-2.90
2015,11,28,05,13,-2.90
2015,11,28,05,14,-2.90
2015,11,28,05,15,-2.90
2015,11,28,05,16,-2.90
2015,11,28,05,17,-2.90
2015,11,28,05,18,-2.90
2015,11,28,05,19,-2.90
2015,11,28,05,20,-2.90
2015,11,28,05,21,-2.90
2015,11,28,05,22,-2.90
2015,11,28,05,23,-2.90
2015,11,28,05,24,-2.90
2015,11,28,05,25,-2.90
2015,11,28,05,26,-2.90
2015,11,28,05,27,-2.90
2015,11,28,05,28,-2.90
2015,11,28,05,29,-2.90
2015,11,28,05,30,-2.90
2015,11,28,05,31,-2.90
2015,11,28,05,32,-2.90
2015,11,28,05,33,-2.90
2015,11,28,05,36,-3.00
2015,11,28,05,37,-3.00
2015,11,28,05,39,-3.10
2015,11,28,05,40,-3.10
2015,11,28,05,41,-3.10
2015,11,28,05,42,-3.10
2015,11,28,05,43,-3.10
2015,11,28,05,44,-3.10
2015,11,28,05,45,-3.10
2015,11,28,05,46,-3.20
2015,11,28,05,47,-3.20
2015,11,28,05,48,-3.20
2015,11,28,05,49,-3.20
2015,11,28,05,50,-3.20
2015,11,28,05,51,-3.20
2015,11,28,05,52,-3.20
2015,11,28,05,53,-3.20
2015,11,28,05,54,-3.20
2015,11,28,05,55,-3.20
2015,11,28,05,56,-3.20
2015,11,28,05,59,-3.20
2015,11,28,06,00,-3.20
2015,11,28,06,01,-3.20
2015,11,28,06,02,-3.20
2015,11,28,06,05,-3.20
2015,11,28,06,06,-3.20
2015,11,28,06,07,-3.20
2015,11,28,06,08,-3.30
2015,11,28,06,09,-3.30
2015,11,28,06,10,-3.30
2015,11,28,06,11,-3.30
2015,11,28,06,12,-3.30
2015,11,28,06,13,-3.30
2015,11,28,06,14,-3.30
2015,11,28,06,15,-3.30
2015,11,28,06,17,-3.30
2015,11,28,06,18,-3.30
2015,11,28,06,19,-3.30
2015,11,28,06,20,-3.30
2015,11,28,06,21,-3.30
2015,11,28,06,22,-3.30
2015,11,28,06,23,-3.30
2015,11,28,06,24,-3.30
2015,11,28,06,25,-3.30
2015,11,28,06,26,-3.30
2015,11,28,06,27,-3.30
2015,11,28,06,28,-3.30
2015,11,28,06,29,-3.30
2015,11,28,06,30,-3.30
2015,11,28,06,31,-3.30
2015,11,28,06,32,-3.30
2015,11,28,06,33,-3.30
2015,11,28,06,34,-3.30
2015,11,28,06,37,-3.30
2015,11,28,06,38,-3.30
2015,11,28,06,39,-3.30
2015,11,28,06,40,-3.30
2015,11,28,06,41,-3.30
2015,11,28,06,42,-3.30
2015,11,28,06,43,-3.30
2015,11,28,06,44,-3.30
2015,11,28,06,45,-3.30
2015,11,28,06,46,-3.30
2015,11,28,06,47,-3.30
2015,11,28,06,48,-3.30
2015,11,28,06,49,-3.30
2015,11,28,06,50,-3.30
2015,11,28,06,53,-3.30
2015,11,28,06,54,-3.30
2015,11,28,06,57,-3.30
2015,11,28,06,58,-3.30
2015,11,28,06,59,-3.30
2015,11,28,07,00,-3.20
2015,11,28,07,01,-3.20
2015,11,28,07,02,-3.20
2015,11,28,07,03,-3.20
2015,11,28,07,04,-3.20
2015,11,28,07,05,-3.30
2015,11,28,07,06,-3.30
2015,11,28,07,07,-3.30
2015,11,28,07,08,-3.30
2015,11,28,07,09,-3.30
2015,11,28,07,10,-3.30
2015,11,28,07,11,-3.30
2015,11,28,07,12,-3.30
2015,11,28,07,13,-3.30
2015,11,28,07,16,-3.30
2015,11,28,07,17,-3.30
2015,11,28,07,18,-3.30
2015,11,28,07,19,-3.30
2015,11,28,07,20,-3.30
2015,11,28,07,21,-3.30
2015,11,28,07,22,-3.20
2015,11,28,07,23,-3.30
2015,11,28,07,24,-3.20
2015,11,28,07,25,-3.20
2015,11,28,07,26,-3.20
2015,11,28,07,27,-3.20
2015,11,28,07,28,-3.20
2015,11,28,07,29,-3.20
2015,11,28,07,30,-3.20
2015,11,28,07,31,-3.20
2015,11,28,07,32,-3.20
2015,11,28,07,33,-3.20
2015,11,28,07,34,-3.20
2015,11,28,07,35,-3.20
2015,11,28,07,36,-3.20
2015,11,28,07,37,-3.20
2015,11,28,07,38,-3.20
2015,11,28,07,39,-3.20
2015,11,28,07,40,-3.20
2015,11,28,07,41,-3.20
2015,11,28,07,42,-3.20
2015,11,28,07,43,-3.20
2015,11,28,07,44,-3.20
2015,11,28,07,45,-3.20
2015,11,28,07,46,-3.30
2015,11,28,07,47,-3.30
2015,11,28,07,48,-3.30
2015,11,28,07,49,-3.30
2015,11,28,07,50,-3.30
2015,11,28,07,51,-3.30
2015,11,28,07,52,-3.30
2015,11,28,07,55,-3.30
2015,11,28,07,56,-3.30
2015,11,28,07,57,-3.30
2015,11,28,07,58,-3.30
2015,11,28,07,59,-3.40
2015,11,28,08,00,-3.40
2015,11,28,08,01,-3.40
2015,11,28,08,02,-3.40
2015,11,28,08,03,-3.40
2015,11,28,08,04,-3.40
2015,11,28,08,05,-3.40
2015,11,28,08,06,-3.40
2015,11,28,08,07,-3.40
2015,11,28,08,08,-3.40
2015,11,28,08,09,-3.40
2015,11,28,08,10,-3.40
2015,11,28,08,11,-3.40
2015,11,28,08,12,-3.40
2015,11,28,08,13,-3.50
2015,11,28,08,14,-3.50
2015,11,28,08,15,-3.50
2015,11,28,08,16,-3.50
2015,11,28,08,17,-3.50
2015,11,28,08,18,-3.50
2015,11,28,08,19,-3.50
2015,11,28,08,20,-3.40
2015,11,28,08,21,-3.40
2015,11,28,08,24,-3.40
2015,11,28,08,25,-3.40
2015,11,28,08,26,-3.40
2015,11,28,08,27,-3.40
2015,11,28,08,28,-3.40
2015,11,28,08,29,-3.40
2015,11,28,08,30,-3.40
2015,11,28,08,31,-3.30
2015,11,28,08,32,-3.30
2015,11,28,08,33,-3.30
2015,11,28,08,34,-3.30
2015,11,28,08,35,-3.30
2015,11,28,08,36,-3.30
2015,11,28,08,37,-3.30
2015,11,28,08,38,-3.30
2015,11,28,08,39,-3.30
2015,11,28,08,40,-3.30
2015,11,28,08,42,-3.20
2015,11,28,08,43,-3.20
2015,11,28,08,44,-3.20
2015,11,28,08,47,-3.20
2015,11,28,08,48,-3.20
2015,11,28,08,49,-3.20
2015,11,28,08,50,-3.20
2015,11,28,08,51,-3.20
2015,11,28,08,52,-3.20
2015,11,28,08,53,-3.20
2015,11,28,08,55,-3.10
2015,11,28,08,56,-3.10
2015,11,28,08,57,-3.10
2015,11,28,08,58,-3.10
2015,11,28,08,59,-3.10
2015,11,28,09,00,-3.10
2015,11,28,09,01,-3.10
2015,11,28,09,02,-3.10
2015,11,28,09,03,-3.10
2015,11,28,09,04,-3.10
2015,11,28,09,05,-3.10
2015,11,28,09,06,-3.10
2015,11,28,09,07,-3.10
2015,11,28,09,09,-3.10
2015,11,28,09,10,-3.10
2015,11,28,09,11,-3.10
2015,11,28,09,12,-3.10
2015,11,28,09,13,-3.10
2015,11,28,09,14,-3.10
2015,11,28,09,15,-3.00
2015,11,28,09,16,-3.00
2015,11,28,09,17,-3.00
2015,11,28,09,18,-3.00
2015,11,28,09,19,-3.00
2015,11,28,09,20,-3.00
2015,11,28,09,21,-3.00
2015,11,28,09,22,-3.00
2015,11,28,09,23,-2.90
2015,11,28,09,24,-2.90
2015,11,28,09,25,-2.90
2015,11,28,09,26,-2.90
2015,11,28,09,27,-2.90
2015,11,28,09,28,-2.90
2015,11,28,09,30,-2.80
2015,11,28,09,31,-2.80
2015,11,28,09,32,-2.80
2015,11,28,09,33,-2.80
2015,11,28,09,34,-2.80
2015,11,28,09,35,-2.80
2015,11,28,09,36,-2.70
2015,11,28,09,37,-2.70
2015,11,28,09,38,-2.70
2015,11,28,09,39,-2.70
2015,11,28,09,40,-2.70
2015,11,28,09,41,-2.70
2015,11,28,09,42,-2.70
2015,11,28,09,43,-2.70
2015,11,28,09,44,-2.70
2015,11,28,09,45,-2.70
2015,11,28,09,46,-2.70
2015,11,28,09,47,-2.60
2015,11,28,09,48,-2.60
2015,11,28,09,49,-2.60
2015,11,28,09,51,-2.60
2015,11,28,09,52,-2.60
2015,11,28,09,53,-2.60
2015,11,28,09,54,-2.60
2015,11,28,09,55,-2.60
2015,11,28,09,56,-2.60
2015,11,28,09,57,-2.60
2015,11,28,09,58,-2.60
2015,11,28,09,59,-2.60
2015,11,28,10,00,-2.50
2015,11,28,10,01,-2.50
2015,11,28,10,02,-2.50
2015,11,28,10,03,-2.50
2015,11,28,10,04,-2.50
2015,11,28,10,05,-2.50
2015,11,28,10,06,-2.50
2015,11,28,10,07,-2.40
2015,11,28,10,08,-2.40
2015,11,28,10,09,-2.40
2015,11,28,10,10,-2.40
2015,11,28,10,12,-2.40
2015,11,28,10,13,-2.50
2015,11,28,10,14,-2.50
2015,11,28,10,15,-2.50
2015,11,28,10,16,-2.50
2015,11,28,10,17,-2.50
2015,11,28,10,18,-2.50
2015,11,28,10,19,-2.50
2015,11,28,10,21,-2.60
2015,11,28,10,22,-2.60
2015,11,28,10,23,-2.60
2015,11,28,10,24,-2.60
2015,11,28,10,25,-2.60
2015,11,28,10,26,-2.60
2015,11,28,10,27,-2.60
2015,11,28,10,28,-2.60
2015,11,28,10,29,-2.50
2015,11,28,10,31,-2.50
2015,11,28,10,32,-2.50
2015,11,28,10,33,-2.40
2015,11,28,10,34,-2.40
2015,11,28,10,35,-2.40
2015,11,28,10,36,-2.50
2015,11,28,10,37,-2.40
2015,11,28,10,38,-2.40
2015,11,28,10,39,-2.40
2015,11,28,10,40,-2.40
2015,11,28,10,41,-2.40
2015,11,28,10,42,-2.40
2015,11,28,10,43,-2.50
2015,11,28,10,44,-2.50
2015,11,28,10,45,-2.50
2015,11,28,10,46,-2.50
2015,11,28,10,47,-2.50
2015,11,28,10,49,-2.50
2015,11,28,10,50,-2.40
2015,11,28,10,52,-2.40
2015,11,28,10,53,-2.40
2015,11,28,10,54,-2.40
2015,11,28,10,55,-2.30
2015,11,28,10,56,-2.30
2015,11,28,10,57,-2.30
2015,11,28,10,58,-2.30
2015,11,28,10,59,-2.40
2015,11,28,11,00,-2.40
2015,11,28,11,01,-2.40
2015,11,28,11,02,-2.40
2015,11,28,11,03,-2.40
2015,11,28,11,04,-2.40
2015,11,28,11,05,-2.40
2015,11,28,11,06,-2.40
2015,11,28,11,07,-2.40
2015,11,28,11,08,-2.40
2015,11,28,11,09,-2.40
2015,11,28,11,10,-2.30
2015,11,28,11,12,-2.30
2015,11,28,11,13,-2.30
2015,11,28,11,14,-2.30
2015,11,28,11,15,-2.20
2015,11,28,11,16,-2.20
2015,11,28,11,17,-2.20
2015,11,28,11,18,-2.20
2015,11,28,11,19,-2.20
2015,11,28,11,20,-2.10
2015,11,28,11,21,-2.10
2015,11,28,11,22,-2.10
2015,11,28,11,23,-2.10
2015,11,28,11,24,-2.00
2015,11,28,11,25,-2.00
2015,11,28,11,26,-2.00
2015,11,28,11,27,-1.90
2015,11,28,11,28,-1.90
2015,11,28,11,31,-1.90
2015,11,28,11,32,-1.90
2015,11,28,11,33,-1.90
2015,11,28,11,34,-1.90
2015,11,28,11,35,-1.90
2015,11,28,11,36,-1.90
2015,11,28,11,37,-1.90
2015,11,28,11,38,-1.90
2015,11,28,11,39,-1.90
2015,11,28,11,40,-1.80
2015,11,28,11,41,-1.80
2015,11,28,11,42,-1.80
2015,11,28,11,43,-1.80
2015,11,28,11,44,-1.80
2015,11,28,11,45,-1.80
2015,11,28,11,46,-1.70
2015,11,28,11,47,-1.70
2015,11,28,11,48,-1.70
2015,11,28,11,51,-1.70
2015,11,28,11,52,-1.70
2015,11,28,11,53,-1.70
2015,11,28,11,54,-1.70
2015,11,28,11,55,-1.70
2015,11,28,11,56,-1.70
2015,11,28,11,57,-1.70
2015,11,28,11,58,-1.70
2015,11,28,11,59,-1.60
2015,11,28,12,00,-1.60
2015,11,28,12,01,-1.60
2015,11,28,12,02,-1.60
2015,11,28,12,03,-1.60
2015,11,28,12,04,-1.60
2015,11,28,12,05,-1.60
2015,11,28,12,06,-1.60
2015,11,28,12,07,-1.60
2015,11,28,12,08,-1.50
2015,11,28,12,09,-1.50
2015,11,28,12,10,-1.50
2015,11,28,12,12,-1.40
2015,11,28,12,13,-1.40
2015,11,28,12,14,-1.40
2015,11,28,12,15,-1.40
2015,11,28,12,16,-1.40
2015,11,28,12,17,-1.40
2015,11,28,12,18,-1.30
2015,11,28,12,19,-1.30
2015,11,28,12,20,-1.30
2015,11,28,12,21,-1.30
2015,11,28,12,22,-1.30
2015,11,28,12,23,-1.30
2015,11,28,12,24,-1.30
2015,11,28,12,25,-1.30
2015,11,28,12,26,-1.20
2015,11,28,12,27,-1.20
2015,11,28,12,28,-1.20
2015,11,28,12,29,-1.20
2015,11,28,12,30,-1.20
2015,11,28,12,31,-1.20
2015,11,28,12,32,-1.30
2015,11,28,12,33,-1.30
2015,11,28,12,34,-1.30
2015,11,28,12,35,-1.30
2015,11,28,12,36,-1.30
2015,11,28,12,37,-1.30
2015,11,28,12,38,-1.30
2015,11,28,12,39,-1.30
2015,11,28,12,40,-1.30
2015,11,28,12,41,-1.30
2015,11,28,12,42,-1.30
2015,11,28,12,43,-1.30
2015,11,28,12,44,-1.30
2015,11,28,12,45,-1.40
2015,11,28,12,46,-1.30
2015,11,28,12,47,-1.30
2015,11,28,12,48,-1.30
2015,11,28,12,49,-1.40
2015,11,28,12,50,-1.40
2015,11,28,12,52,-1.40
2015,11,28,12,53,-1.40
2015,11,28,12,54,-1.40
2015,11,28,12,55,-1.40
2015,11,28,12,56,-1.40
2015,11,28,12,57,-1.40
2015,11,28,12,58,-1.40
2015,11,28,12,59,-1.40
2015,11,28,13,00,-1.40
2015,11,28,13,01,-1.40
2015,11,28,13,02,-1.40
2015,11,28,13,03,-1.40
2015,11,28,13,04,-1.40
2015,11,28,13,05,-1.40
2015,11,28,13,06,-1.30
2015,11,28,13,07,-1.30
2015,11,28,13,08,-1.30
2015,11,28,13,09,-1.30
2015,11,28,13,12,-1.30
2015,11,28,13,13,-1.30
2015,11,28,13,14,-1.30
2015,11,28,13,15,-1.20
2015,11,28,13,16,-1.20
2015,11,28,13,17,-1.20
2015,11,28,13,18,-1.20
2015,11,28,13,19,-1.20
2015,11,28,13,20,-1.20
2015,11,28,13,21,-1.20
2015,11,28,13,22,-1.10
2015,11,28,13,23,-1.10
2015,11,28,13,24,-1.10
2015,11,28,13,25,-1.10
2015,11,28,13,26,-1.10
2015,11,28,13,27,-1.10
2015,11,28,13,28,-1.10
2015,11,28,13,29,-1.10
2015,11,28,13,30,-1.10
2015,11,28,13,32,-1.10
2015,11,28,13,33,-1.10
2015,11,28,13,34,-1.10
2015,11,28,13,35,-1.10
2015,11,28,13,36,-1.10
2015,11,28,13,37,-1.10
2015,11,28,13,38,-1.10
2015,11,28,13,40,-1.10
2015,11,28,13,41,-1.10
2015,11,28,13,42,-1.10
2015,11,28,13,43,-1.10
2015,11,28,13,44,-1.10
2015,11,28,13,45,-1.10
2015,11,28,13,46,-1.10
2015,11,28,13,47,-1.10
2015,11,28,13,48,-1.10
2015,11,28,13,51,-1.00
2015,11,28,13,52,-1.00
2015,11,28,13,53,-1.00
2015,11,28,13,54,-1.00
2015,11,28,13,55,-1.00
2015,11,28,13,56,-1.00
2015,11,28,13,57,-1.00
2015,11,28,13,58,-0.90
2015,11,28,13,59,-0.90
2015,11,28,14,00,-0.90
2015,11,28,14,01,-0.90
2015,11,28,14,02,-0.90
2015,11,28,14,03,-0.90
2015,11,28,14,04,-0.90
2015,11,28,14,05,-0.90
2015,11,28,14,06,-0.80
2015,11,28,14,07,-0.80
2015,11,28,14,08,-0.80
2015,11,28,14,10,-0.80
2015,11,28,14,11,-0.80
2015,11,28,14,12,-0.80
2015,11,28,14,13,-0.80
2015,11,28,14,14,-0.80
2015,11,28,14,15,-0.80
2015,11,28,14,16,-0.80
2015,11,28,14,17,-0.80
2015,11,28,14,18,-0.70
2015,11,28,14,19,-0.70
2015,11,28,14,20,-0.70
2015,11,28,14,21,-0.70
2015,11,28,14,22,-0.70
2015,11,28,14,23,-0.70
2015,11,28,14,24,-0.70
2015,11,28,14,25,-0.70
2015,11,28,14,26,-0.70
2015,11,28,14,27,-0.70
2015,11,28,14,28,-0.70
2015,11,28,14,29,-0.70
2015,11,28,14,31,-0.70
2015,11,28,14,32,-0.70
2015,11,28,14,33,-0.70
2015,11,28,14,34,-0.70
2015,11,28,14,35,-0.70
2015,11,28,14,36,-0.60
2015,11,28,14,37,-0.60
2015,11,28,14,38,-0.60
2015,11,28,14,39,-0.60
2015,11,28,14,40,-0.60
2015,11,28,14,41,-0.70
2015,11,28,14,42,-0.70
2015,11,28,14,43,-0.70
2015,11,28,14,44,-0.70
2015,11,28,14,45,-0.70
2015,11,28,14,46,-0.70
2015,11,28,14,47,-0.70
2015,11,28,14,48,-0.70
2015,11,28,14,50,-0.80
2015,11,28,14,51,-0.70
2015,11,28,14,52,-0.80
2015,11,28,14,53,-0.80
2015,11,28,14,54,-0.80
2015,11,28,14,55,-0.80
2015,11,28,14,56,-0.80
2015,11,28,14,57,-0.80
2015,11,28,14,58,-0.70
2015,11,28,14,59,-0.70
2015,11,28,15,00,-0.70
2015,11,28,15,02,-0.70
2015,11,28,15,03,-0.70
2015,11,28,15,04,-0.70
2015,11,28,15,05,-0.70
2015,11,28,15,06,-0.70
2015,11,28,15,07,-0.70
2015,11,28,15,08,-0.70
2015,11,28,15,09,-0.70
2015,11,28,15,10,-0.70
2015,11,28,15,11,-0.70
2015,11,28,15,12,-0.70
2015,11,28,15,13,-0.70
2015,11,28,15,14,-0.70
2015,11,28,15,15,-0.70
2015,11,28,15,16,-0.70
2015,11,28,15,17,-0.70
2015,11,28,15,18,-0.70
2015,11,28,15,19,-0.70
2015,11,28,15,20,-0.70
2015,11,28,15,21,-0.70
2015,11,28,15,22,-0.70
2015,11,28,15,23,-0.70
2015,11,28,15,24,-0.70
2015,11,28,15,25,-0.70
2015,11,28,15,26,-0.70
2015,11,28,15,27,-0.70
2015,11,28,15,28,-0.70
2015,11,28,15,29,-0.70
2015,11,28,15,30,-0.70
2015,11,28,15,31,-0.70
2015,11,28,15,32,-0.70
2015,11,28,15,33,-0.70
2015,11,28,15,34,-0.70
2015,11,28,15,36,-0.70
2015,11,28,15,37,-0.70
2015,11,28,15,38,-0.80
2015,11,28,15,39,-0.80
2015,11,28,15,40,-0.80
2015,11,28,15,41,-0.80
2015,11,28,15,42,-0.80
2015,11,28,15,43,-0.80
2015,11,28,15,44,-0.80
2015,11,28,15,45,-0.80
2015,11,28,15,46,-0.80
2015,11,28,15,47,-0.80
2015,11,28,15,48,-0.80
2015,11,28,15,49,-0.80
2015,11,28,15,50,-0.80
2015,11,28,15,51,-0.80
2015,11,28,15,52,-0.80
2015,11,28,15,53,-0.80
2015,11,28,15,54,-0.80
2015,11,28,15,55,-0.80
2015,11,28,15,56,-0.80
2015,11,28,15,57,-0.80
2015,11,28,15,58,-0.80
2015,11,28,15,59,-0.80
2015,11,28,16,00,-0.80
2015,11,28,16,01,-0.80
2015,11,28,16,02,-0.80
2015,11,28,16,03,-0.80
2015,11,28,16,04,-0.80
2015,11,28,16,05,-0.80
2015,11,28,16,06,-0.80
2015,11,28,16,07,-0.90
2015,11,28,16,08,-0.90
2015,11,28,16,09,-0.90
2015,11,28,16,10,-0.90
2015,11,28,16,11,-0.90
2015,11,28,16,12,-0.90
2015,11,28,16,13,-0.90
2015,11,28,16,14,-0.90
2015,11,28,16,15,-0.90
2015,11,28,16,16,-0.90
2015,11,28,16,17,-0.90
2015,11,28,16,18,-0.90
2015,11,28,16,19,-0.90
2015,11,28,16,20,-0.90
2015,11,28,16,21,-0.90
2015,11,28,16,22,-0.90
2015,11,28,16,23,-0.90
2015,11,28,16,24,-0.90
2015,11,28,16,25,-0.90
2015,11,28,16,26,-0.90
2015,11,28,16,27,-0.90
2015,11,28,16,28,-0.90
2015,11,28,16,29,-0.90
2015,11,28,16,30,-0.90
2015,11,28,16,31,-0.90
2015,11,28,16,32,-0.90
2015,11,28,16,33,-0.90
2015,11,28,16,34,-0.90
2015,11,28,16,35,-0.90
2015,11,28,16,36,-0.90
2015,11,28,16,37,-0.90
2015,11,28,16,39,-0.90
2015,11,28,16,40,-0.90
2015,11,28,16,41,-0.90
2015,11,28,16,42,-0.90
2015,11,28,16,43,-0.90
2015,11,28,16,44,-0.90
2015,11,28,16,45,-0.90
2015,11,28,16,46,-0.90
2015,11,28,16,48,-0.90
2015,11,28,16,49,-0.90
2015,11,28,16,50,-0.90
2015,11,28,16,51,-0.90
2015,11,28,16,52,-0.90
2015,11,28,16,53,-0.90
2015,11,28,16,54,-0.90
2015,11,28,16,55,-0.90
2015,11,28,16,56,-0.90
2015,11,28,16,57,-0.90
2015,11,28,16,58,-0.90
2015,11,28,16,59,-0.90
2015,11,28,17,00,-0.90
2015,11,28,17,01,-0.90
2015,11,28,17,02,-0.90
2015,11,28,17,03,-1.00
2015,11,28,17,04,-0.90
2015,11,28,17,05,-1.00
2015,11,28,17,06,-1.00
2015,11,28,17,07,-1.00
2015,11,28,17,08,-1.00
2015,11,28,17,09,-1.00
2015,11,28,17,10,-1.00
2015,11,28,17,11,-1.00
2015,11,28,17,12,-1.00
2015,11,28,17,13,-1.00
2015,11,28,17,14,-1.00
2015,11,28,17,15,-1.00
2015,11,28,17,16,-1.00
2015,11,28,17,17,-1.00
2015,11,28,17,18,-1.00
2015,11,28,17,19,-1.00
2015,11,28,17,20,-1.00
2015,11,28,17,21,-1.00
2015,11,28,17,22,-1.00
2015,11,28,17,23,-1.00
2015,11,28,17,24,-1.00
2015,11,28,17,25,-1.00
2015,11,28,17,26,-1.00
2015,11,28,17,27,-1.00
2015,11,28,17,29,-0.90
2015,11,28,17,30,-1.00
2015,11,28,17,31,-1.00
2015,11,28,17,32,-1.00
2015,11,28,17,33,-1.00
2015,11,28,17,34,-1.00
2015,11,28,17,35,-1.00
2015,11,28,17,36,-1.00
2015,11,28,17,37,-1.10
2015,11,28,17,38,-1.10
2015,11,28,17,39,-1.10
2015,11,28,17,40,-1.10
2015,11,28,17,41,-1.10
2015,11,28,17,42,-1.10
2015,11,28,17,43,-1.00
2015,11,28,17,44,-1.10
2015,11,28,17,46,-1.10
2015,11,28,17,47,-1.10
2015,11,28,17,48,-1.10
2015,11,28,17,49,-1.10
2015,11,28,17,50,-1.10
2015,11,28,17,51,-1.10
2015,11,28,17,52,-1.10
2015,11,28,17,53,-1.10
2015,11,28,17,54,-1.10
2015,11,28,17,55,-1.10
2015,11,28,17,56,-1.10
2015,11,28,17,57,-1.10
2015,11,28,17,58,-1.10
2015,11,28,17,59,-1.10
2015,11,28,18,00,-1.10
2015,11,28,18,01,-1.10
2015,11,28,18,02,-1.10
2015,11,28,18,03,-1.10
2015,11,28,18,04,-1.10
2015,11,28,18,05,-1.10
2015,11,28,18,06,-1.10
2015,11,28,18,09,-1.20
2015,11,28,18,10,-1.20
2015,11,28,18,11,-1.20
2015,11,28,18,12,-1.20
2015,11,28,18,13,-1.20
2015,11,28,18,14,-1.20
2015,11,28,18,15,-1.20
2015,11,28,18,16,-1.20
2015,11,28,18,17,-1.20
2015,11,28,18,18,-1.20
2015,11,28,18,19,-1.20
2015,11,28,18,20,-1.30
2015,11,28,18,21,-1.30
2015,11,28,18,22,-1.30
2015,11,28,18,23,-1.30
2015,11,28,18,24,-1.30
2015,11,28,18,25,-1.30
2015,11,28,18,26,-1.30
2015,11,28,18,27,-1.30
2015,11,28,18,29,-1.30
2015,11,28,18,30,-1.30
2015,11,28,18,31,-1.30
2015,11,28,18,33,-1.40
2015,11,28,18,34,-1.40
2015,11,28,18,35,-1.40
2015,11,28,18,36,-1.40
2015,11,28,18,37,-1.40
2015,11,28,18,38,-1.40
2015,11,28,18,39,-1.40